Location: *
(45.5667°S, 177.5167°W)
Time: 22:25:43
(UTC+00:00)

Cosmos 2082 Rocket - Pass Details

Date: 29 May 2022
Orbit: 832 x 854 km, 71.0° (Epoch: 24 June)

Event Time Altitude Azimuth Distance (km) Brightness Sun altitude
Rises 07:32:10 0° 284° (WNW) 3,394 6.3 -33.4°
Reaches altitude 10° 07:35:28 10° 264° (W) 2,465 5.4 -34.0°
Maximum altitude 07:39:11 18° 223° (SW) 1,984 4.5 -34.6°
Enters shadow 07:41:21 15° 196° (SSW) 2,164 4.5 -35.0°
